GLD166 SBCT-SBCF

Flight info

Callsign GLD166
Flight time N/A
Altitude 37000
Route GRAD1A XONUG DCT CGO DCT KONVI UZ23 KIBAP SINI1A
Aircraft A320/M-SDFGIRY/S

Departure

Time 2026-05-05 01:27
Airport Curitiba-Afonso Pena International Airport (SBCT)

Arrival

Time N/A
Airport Tancredo Neves International Airport (SBCF)
Time Latitude Longitude Altitude Speed Heading
2026-05-05 01:13 -25.53492 -49.17302 2969 ft 0 kts 225°
2026-05-05 01:16 -25.53493 -49.17302 2969 ft 0 kts 225°
2026-05-05 01:16 -25.53485 -49.17295 2996 ft 3 kts 225°
2026-05-05 01:17 -25.53473 -49.17281 2996 ft 3 kts 225°
2026-05-05 01:17 -25.53461 -49.17266 2996 ft 3 kts 251°
2026-05-05 01:17 -25.53459 -49.17247 2996 ft 3 kts 288°
2026-05-05 01:17 -25.53467 -49.17230 2996 ft 2 kts 313°
2026-05-05 01:19 -25.53464 -49.17234 2996 ft 2 kts 313°
2026-05-05 01:19 -25.53451 -49.17249 2996 ft 4 kts 313°
2026-05-05 01:19 -25.53427 -49.17273 2996 ft 5 kts 330°
2026-05-05 01:20 -25.53389 -49.17266 2996 ft 6 kts 31°
2026-05-05 01:20 -25.53345 -49.17252 2996 ft 7 kts 344°
2026-05-05 01:20 -25.53305 -49.17294 2996 ft 9 kts 312°
2026-05-05 01:20 -25.53258 -49.17349 2996 ft 11 kts 315°
2026-05-05 01:21 -25.53199 -49.17414 2996 ft 13 kts 315°
2026-05-05 01:21 -25.53133 -49.17486 2996 ft 13 kts 315°
2026-05-05 01:21 -25.53064 -49.17562 2996 ft 15 kts 315°
2026-05-05 01:21 -25.52991 -49.17653 2996 ft 16 kts 290°
2026-05-05 01:22 -25.52977 -49.17784 2995 ft 17 kts 269°
2026-05-05 01:22 -25.52953 -49.17893 2995 ft 16 kts 309°
2026-05-05 01:22 -25.52873 -49.17979 2993 ft 16 kts 329°
2026-05-05 01:22 -25.52773 -49.17988 2994 ft 0 kts
2026-05-05 01:24 -25.52760 -49.17987 2995 ft 4 kts
2026-05-05 01:24 -25.52707 -49.17989 2995 ft 11 kts 352°
2026-05-05 01:24 -25.52606 -49.18001 2996 ft 18 kts 355°
2026-05-05 01:25 -25.52462 -49.18027 2996 ft 24 kts 324°
2026-05-05 01:25 -25.52324 -49.18160 2997 ft 28 kts 311°
2026-05-05 01:25 -25.52198 -49.18265 2996 ft 15 kts 285°
2026-05-05 01:25 -25.52212 -49.18294 2996 ft 2 kts 149°
2026-05-05 01:26 -25.52220 -49.18285 2996 ft 0 kts 132°
2026-05-05 01:26 -25.52289 -49.18201 2997 ft 54 kts 134°
2026-05-05 01:26 -25.52769 -49.17665 2995 ft 138 kts 134°
2026-05-05 01:26 -25.53525 -49.16818 3477 ft 162 kts 135°
2026-05-05 01:27 -25.54334 -49.15895 4261 ft 171 kts 129°
2026-05-05 01:27 -25.54727 -49.14652 4638 ft 183 kts 79°
2026-05-05 01:27 -25.54200 -49.13329 4901 ft 200 kts 55°
2026-05-05 01:27 -25.53450 -49.11909 5168 ft 226 kts 58°
2026-05-05 01:28 -25.52649 -49.10307 5548 ft 250 kts 59°
2026-05-05 01:28 -25.51784 -49.08525 5987 ft 275 kts 59°
2026-05-05 01:28 -25.50865 -49.06604 6718 ft 285 kts 60°
2026-05-05 01:28 -25.49961 -49.04692 7814 ft 278 kts 60°
2026-05-05 01:29 -25.49065 -49.02794 8762 ft 279 kts 60°
2026-05-05 01:29 -25.48160 -49.00881 9658 ft 282 kts 60°
2026-05-05 01:29 -25.47244 -48.98949 10484 ft 285 kts 60°
2026-05-05 01:29 -25.46200 -48.97081 11252 ft 287 kts 48°
2026-05-05 01:30 -25.44790 -48.95558 12012 ft 287 kts 34°
2026-05-05 01:30 -25.43061 -48.94461 12792 ft 287 kts 19°
2026-05-05 01:30 -25.41119 -48.93829 13558 ft 289 kts 11°
2026-05-05 01:30 -25.39156 -48.93305 14289 ft 292 kts 11°
2026-05-05 01:31 -25.37162 -48.92771 14919 ft 297 kts 11°
2026-05-05 01:31 -25.35137 -48.92227 15532 ft 302 kts 11°
2026-05-05 01:31 -25.33076 -48.91669 16163 ft 308 kts 11°